Regional Weather Roundup
Issued by NWS

Home | Current Version | Previous Version | Text Only | Print | Product List | Glossary Off
Versions: 1 2 3 4 5 6 7 8 9 10 11 12 13 14 15 16 17 18 19 20 21 22 23 24 25 26 27 28 29 30 31 32 33 34 35 36 37 38 39 40 41 42 43 44 45 46 47 48 49 50

967
ASUS43 KFSD 080610
RWRSD

WEATHER ROUNDUP FOR SOUTH DAKOTA
NATIONAL WEATHER SERVICE SIOUX FALLS SD
1200 AM CST THU DEC 08 2016

NOTE: "FAIR" INDICATES FEW OR NO CLOUDS BELOW 12,000 FEET WITH NO
SIGNIFICANT WEATHER AND/OR OBSTRUCTIONS TO VISIBILITY.


SDZ001>005-009-010-012>017-080700-
NORTHWEST AND NORTH CENTRAL SOUTH DAKOTA

CITY           SKY/WX    TMP DP  RH WIND       PRES   REMARKS
BUFFALO          N/A      1  -5  75 NW16      30.42R WCI -19
FAITH            N/A      3  -2  79 NW25      30.48R WCI -20
MOBRIDGE       CLOUDY     5  -3  69 NW25G35   30.44S WCI -18
$$

SDZ012>016-024>037-041>051-057-063-072>074-080700-
SOUTHWEST AND SOUTH CENTRAL SOUTH DAKOTA

CITY           SKY/WX    TMP DP  RH WIND       PRES   REMARKS
RAPID CTY ARPT CLEAR      4  -5  66 NW18      30.49R WCI -16
PIERRE         CLOUDY     7   0  73 NW30G36   30.50R WCI -16
CUSTER         CLEAR     -4 -13  65 N3        30.27R
ELLSWORTH AFB  CLEAR      5  -6  61 N14       30.48R WCI -12
PHILIP         CLEAR      5  -3  69 NW21      30.54R WCI -16
PINE RIDGE     CLEAR     -8 -12  83 CALM      30.50R
SPEARFISH      FAIR       1  -8  66 W16       30.46R WCI -18
WINNER         FAIR       7  -2  66 NW21G28   30.50R WCI -13
$$

SDZ004>011-016>023-039-040-080700-
NORTHEAST SOUTH DAKOTA

CITY           SKY/WX    TMP DP  RH WIND       PRES   REMARKS
ABERDEEN       FLURRIES  10   2  69 NW26G35   30.40R WCI -11
WATERTOWN      CLOUDY     8   3  80 NW20G30   30.29S WCI -11
BROOKINGS      LGT SNOW   7   3  84 NW18G26   30.31R FOG     WCI -12
SISSETON         N/A     13   7  77 NW25G35   30.28R WCI  -7
$$

SDZ017-020-022-023-036>040-048>070-080700-
SOUTHEAST SOUTH DAKOTA

CITY           SKY/WX    TMP DP  RH WIND       PRES   REMARKS
SIOUX FALLS    CLEAR      8   3  80 NW20G31   30.37R WCI -11
HURON          CLOUDY     7   1  76 NW23G30   30.44S WCI -14
CHAMBERLAIN    CLEAR      9   2  75 NW14G23   30.50R WCI  -8
MITCHELL       CLEAR      9   1  70 NW20G30   30.47R WCI -10
YANKTON        PTCLDY    10   3  72 W20G28    30.45R WCI  -8
$$

ABBREVIATIONS USED IN REMARKS
   TC - TEMPERATURE IN CELSIUS
  WCI - WIND CHILL INDEX
   HX - HEAT INDEX
  VSB - VISIBILITY





USA.gov is the U.S. government's official web portal to all federal, state and local government web resources and services.